#WRAP "P/2009 U6 (LINEAR)" "iau/Ephemerides/Comets/"

P/2009 U6 (LINEAR)

Orbital Elements

The following orbital elements are taken from MPEC 2009-WA0:
P/2009 U6 (LINEAR)
T 2009 Aug. 8.6607 TT                                   MPC
q   1.484203             (2000.0)            P               Q
n   0.1584683      Peri.  308.5827      +0.4603435      -0.8564836
a   3.382007       Node   112.4843      +0.8726428      +0.3882788
e   0.561147       Incl.   14.6376      +0.1630290      +0.3401109
P   6.22
From 111 observations 2009 Oct. 19-Nov. 22.
An explanation of the orbital elements is available.

These orbital elements are also available in forms suitable for loading into a number of popular planetarium-type software programs.


Ephemeris

The following ephemeris is at intervals of five days. A daily ephemeris covering the same time interval is also available.

Personalized ephemerides for this (and other) objects may be generated using the Minor Planet & Comet Ephemeris Service.

Recent magnitude estimates for this comet (as reported to the ICQ) may be available.

Date    TT    R. A. (2000) Decl.     Delta      r     Elong.  Phase   m1    m2
2009 11 25    10 36.69   +12 23.3    1.623    1.849    86.6    32.2  16.7
2009 11 30    10 43.88   +12 28.4    1.597    1.878    90.0    31.7  16.8
2009 12 05    10 50.42   +12 38.3    1.570    1.907    93.7    31.1  16.8
2009 12 10    10 56.28   +12 53.5    1.543    1.936    97.5    30.3  16.8
2009 12 15    11 01.41   +13 14.3    1.516    1.966   101.5    29.4  16.8
2009 12 20    11 05.78   +13 41.1    1.490    1.996   105.7    28.3  16.9
2009 12 25    11 09.34   +14 14.0    1.465    2.027   110.2    27.1  16.9
2009 12 30    11 12.06   +14 53.0    1.441    2.057   114.8    25.7  16.9
2010 01 04    11 13.91   +15 38.0    1.420    2.088   119.6    24.2  17.0
2010 01 09    11 14.86   +16 28.8    1.400    2.120   124.6    22.4  17.0
2010 01 14    11 14.90   +17 24.7    1.384    2.151   129.8    20.6  17.0
2010 01 19    11 14.03   +18 24.9    1.372    2.182   135.1    18.6  17.1
2010 01 24    11 12.28   +19 28.3    1.364    2.214   140.5    16.4  17.1
2010 01 29    11 09.70   +20 33.4    1.362    2.246   145.8    14.3  17.2
2010 02 03    11 06.39   +21 38.6    1.364    2.277   151.1    12.1  17.2
2010 02 08    11 02.44   +22 42.4    1.373    2.309   155.9    10.0  17.3
2010 02 13    10 57.99   +23 42.9    1.388    2.341   160.0     8.3  17.4
2010 02 18    10 53.21   +24 38.7    1.410    2.372   162.8     7.1  17.5
2010 02 23    10 48.29   +25 28.3    1.439    2.404   163.5     6.7  17.6
2010 02 28    10 43.40   +26 10.8    1.475    2.436   162.0     7.2  17.7
2010 03 05    10 38.70   +26 45.6    1.517    2.467   158.8     8.4  17.8
2010 03 10    10 34.35   +27 12.6    1.565    2.499   154.6     9.8  17.9
2010 03 15    10 30.46   +27 31.7    1.620    2.530   150.0    11.3  18.1
2010 03 20    10 27.14   +27 43.3    1.680    2.561   145.2    12.8  18.2
2010 03 25    10 24.45   +27 48.0    1.746    2.593   140.4    14.2  18.3
2010 03 30    10 22.43   +27 46.3    1.816    2.624   135.6    15.5  18.5
2010 04 04    10 21.09   +27 39.0    1.891    2.655   130.9    16.6  18.6
2010 04 09    10 20.40   +27 26.8    1.969    2.685   126.2    17.5  18.8
2010 04 14    10 20.36   +27 10.3    2.051    2.716   121.7    18.3  18.9
2010 04 19    10 20.92   +26 49.9    2.136    2.747   117.4    18.9  19.0
2010 04 24    10 22.06   +26 26.2    2.224    2.777   113.1    19.5  19.2
2010 04 29    10 23.73   +25 59.8    2.313    2.807   109.0    19.8  19.3
2010 05 04    10 25.87   +25 31.0    2.405    2.837   105.0    20.1  19.4
2010 05 09    10 28.44   +25 00.1    2.498    2.867   101.0    20.2  19.6
2010 05 14    10 31.41   +24 27.4    2.591    2.897    97.2    20.3  19.7
2010 05 19    10 34.73   +23 53.1    2.686    2.926    93.4    20.2  19.8
2010 05 24    10 38.37   +23 17.5    2.781    2.956    89.8    20.0  19.9
2010 05 29    10 42.29   +22 40.8    2.876    2.985    86.2    19.8  20.0
2010 06 03    10 46.46   +22 03.2    2.971    3.014    82.6    19.5  20.2
2010 06 08    10 50.85   +21 24.6    3.066    3.043    79.1    19.1  20.3
2010 06 13    10 55.43   +20 45.4    3.160    3.071    75.7    18.7  20.4
2010 06 18    11 00.19   +20 05.5    3.253    3.100    72.3    18.2  20.5
2010 06 23    11 05.10   +19 25.2    3.345    3.128    69.0    17.7  20.6
2010 06 28    11 10.14   +18 44.5    3.435    3.156    65.7    17.1  20.7
2010 07 03    11 15.30   +18 03.4    3.524    3.184    62.4    16.4  20.8
2010 07 08    11 20.55   +17 22.2    3.611    3.211    59.2    15.8  20.9
2010 07 13    11 25.90   +16 40.7    3.695    3.239    56.0    15.1  20.9